GW2897 Weather Reports


Display with metric or nautical units.
time (UTC)temp
F
wind
direction
speed
MPH
gust
MPH
rain 1hr
in
rain 24hr
in
rain mn
in
humidity
%
barometer
mb
20240530093625 55 0 0.0 0.0 0.00 0.00 0.00 88 1017.8
20240530092704 56 138 0.0 1.0 0.00 0.00 0.00 88 1017.8
20240530091804 56 0 0.0 0.0 0.00 0.00 0.00 86 1017.6
20240530090904 56 0 0.0 0.0 0.00 0.00 0.00 84 1017.5
20240530090004 56 0 0.0 0.0 0.00 0.00 0.00 84 1017.5
20240530085404 57 0 0.0 0.0 0.00 0.00 0.00 84 1017.5
20240530084525 58 116 0.0 1.0 0.00 0.00 0.00 83 1017.3
20240530083625 58 90 0.0 1.0 0.00 0.00 0.00 82 1017.4
20240530082704 57 0 0.0 0.0 0.00 0.00 0.00 83 1017.2
20240530081804 57 0 0.0 0.0 0.00 0.00 0.00 83 1017.2
20240530080904 58 86 0.0 1.0 0.00 0.00 0.00 83 1017.2
20240530080004 58 86 0.0 1.0 0.00 0.00 0.00 83 1017.1
20240530075425 58 86 0.0 1.0 0.00 0.00 0.00 84 1017.1
20240530074504 58 86 0.0 1.0 0.00 0.00 0.00 86 1017.1
20240530073604 58 0 0.0 0.0 0.00 0.00 0.00 86 1017.0
20240530072704 58 87 0.0 1.0 0.00 0.00 0.00 85 1017.0
20240530071804 58 0 0.0 0.0 0.00 0.00 0.00 86 1017.0
20240530070925 58 0 0.0 0.0 0.00 0.00 0.00 87 1017.1
20240530070004 58 0 0.0 0.0 0.00 0.00 0.00 87 1017.1
20240530065404 58 0 0.0 0.0 0.00 0.00 0.00 87 1017.2
20240530064504 58 0 0.0 0.0 0.00 0.00 0.00 86 1017.3
20240530063604 58 0 0.0 0.0 0.00 0.00 0.00 85 1017.2
20240530062704 59 0 0.0 0.0 0.00 0.00 0.00 84 1017.2
20240530061825 60 0 0.0 0.0 0.00 0.00 0.00 82 1017.2
20240530060904 60 0 0.0 0.0 0.00 0.00 0.00 81 1017.3
20240530060004 60 0 0.0 0.0 0.00 0.00 0.00 81 1017.3
20240530055425 61 0 0.0 0.0 0.00 0.00 0.00 81 1017.3
20240530054504 61 0 0.0 0.0 0.00 0.00 0.00 79 1017.3
20240530053604 62 101 0.0 1.0 0.00 0.00 0.00 79 1017.3
20240530052725 62 126 0.0 1.0 0.00 0.00 0.00 78 1017.3
20240530051804 62 0 0.0 0.0 0.00 0.00 0.00 76 1017.1
20240530050904 63 96 0.0 1.0 0.00 0.00 0.00 78 1017.0
20240530050004 64 96 0.0 1.0 0.00 0.00 0.00 76 1017.0
20240530045404 64 96 0.0 1.0 0.00 0.00 0.00 75 1016.9
20240530044504 65 96 0.0 1.0 0.00 0.00 0.00 73 1016.9
20240530043604 66 57 0.0 1.0 0.00 0.00 0.00 71 1016.8
20240530042704 67 284 0.0 1.0 0.00 0.00 0.00 70 1016.6
20240530041804 68 290 1.0 3.0 0.00 0.00 0.00 69 1016.5
20240530040904 68 310 1.0 3.0 0.00 0.00 0.00 66 1016.5
20240530040025 67 290 1.0 3.0 0.00 0.00 0.00 67 1016.6
20240530035404 67 286 1.0 3.0 0.00 0.00 0.00 69 1016.5
20240530034525 68 297 0.0 2.0 0.00 0.00 0.00 69 1016.4
20240530033604 68 281 0.0 3.0 0.00 0.00 0.00 67 1016.4
20240530032725 67 289 0.0 1.0 0.00 0.00 0.00 69 1016.3
20240530031804 68 0 0.0 0.0 0.00 0.00 0.00 67 1016.3
20240530030925 69 277 0.0 2.0 0.00 0.00 0.00 63 1016.1
20240530030005 70 282 0.0 2.0 0.00 0.00 0.00 61 1016.2
20240530025404 71 292 0.0 4.0 0.00 0.00 0.00 61 1016.1
20240530024525 71 293 0.0 4.0 0.00 0.00 0.00 60 1016.2
20240530023604 72 298 1.0 4.0 0.00 0.00 0.00 60 1016.1
20240530022704 72 289 1.0 4.0 0.00 0.00 0.00 60 1016.1
20240530021804 72 277 1.0 3.0 0.00 0.00 0.00 59 1016.0
20240530020904 72 288 0.0 3.0 0.00 0.00 0.00 59 1015.9
20240530020025 72 301 1.0 2.0 0.00 0.00 0.00 61 1015.7
20240530015404 72 281 0.0 2.0 0.00 0.00 0.00 61 1015.8
20240530014525 72 243 0.0 2.0 0.00 0.00 0.00 61 1015.8
20240530013604 72 268 0.0 2.0 0.00 0.00 0.00 60 1015.6
20240530012704 72 302 0.0 5.0 0.00 0.00 0.00 61 1015.6
20240530011804 72 290 0.0 3.0 0.00 0.00 0.00 64 1015.5
20240530010904 72 243 0.0 1.0 0.00 0.00 0.00 64 1015.4
20240530010025 72 223 0.0 1.0 0.00 0.00 0.00 64 1015.3
20240530005404 72 225 0.0 1.0 0.00 0.00 0.00 64 1015.3
20240530004504 72 0 0.0 0.0 0.00 0.00 0.00 62 1015.3
20240530003625 73 0 0.0 0.0 0.00 0.00 0.00 65 1015.4
20240530002704 74 126 0.0 1.0 0.00 0.00 0.00 64 1015.2
20240530001804 75 91 0.0 1.0 0.00 0.00 0.00 62 1015.3
20240530000904 76 91 0.0 1.0 0.00 0.00 0.00 59 1015.2
20240530000004 77 321 0.0 1.0 0.00 0.00 0.00 60 1015.2
20240529235404 78 321 0.0 1.0 0.00 0.00 0.00 58 1015.1
20240529234504 78 323 0.0 1.0 0.00 0.00 0.00 53 1015.0
20240529233604 78 334 0.0 1.0 0.00 0.00 0.00 54 1015.0
20240529232704 79 246 0.0 2.0 0.00 0.00 0.00 52 1014.9
20240529231804 80 263 0.0 5.0 0.00 0.00 0.00 46 1014.8
20240529230925 80 282 1.0 5.0 0.00 0.00 0.00 47 1014.9
20240529230004 81 291 1.0 5.0 0.00 0.00 0.00 46 1014.9
20240529225404 81 289 2.0 6.0 0.00 0.00 0.00 45 1014.9
20240529224504 82 293 3.0 8.0 0.00 0.00 0.00 44 1014.8
20240529223604 82 290 2.0 8.0 0.00 0.00 0.00 42 1014.8
20240529222704 83 295 3.0 9.0 0.00 0.00 0.00 43 1014.8
20240529221804 84 303 3.0 8.0 0.00 0.00 0.00 40 1014.8
20240529220904 85 273 3.0 10.0 0.00 0.00 0.00 42 1014.8
20240529220004 85 290 3.0 7.0 0.00 0.00 0.00 38 1014.8
20240529215404 85 296 4.0 10.0 0.00 0.00 0.00 41 1014.8
20240529214504 86 289 2.0 9.0 0.00 0.00 0.00 40 1014.9
20240529213604 85 299 3.0 9.0 0.00 0.00 0.00 39 1014.9
20240529212704 85 275 3.0 6.0 0.00 0.00 0.00 39 1015.0
20240529211804 85 267 3.0 10.0 0.00 0.00 0.00 41 1015.0
20240529210925 85 282 3.0 10.0 0.00 0.00 0.00 42 1014.9
20240529210004 84 300 4.0 9.0 0.00 0.00 0.00 39 1015.0
20240529205404 84 299 6.0 10.0 0.00 0.00 0.00 40 1015.1
20240529204525 84 294 6.0 15.0 0.00 0.00 0.00 38 1015.2
20240529203604 84 295 5.0 12.0 0.00 0.00 0.00 39 1015.2
20240529202704 84 296 5.0 11.0 0.00 0.00 0.00 39 1015.2
20240529201825 84 299 6.0 13.0 0.00 0.00 0.00 38 1015.2
20240529200904 84 291 6.0 13.0 0.00 0.00 0.00 42 1015.2
20240529200004 84 298 6.0 14.0 0.00 0.00 0.00 40 1015.4
20240529195404 84 301 5.0 13.0 0.00 0.00 0.00 40 1015.4
20240529194504 84 299 4.0 11.0 0.00 0.00 0.00 42 1015.6
20240529193604 84 298 5.0 8.0 0.00 0.00 0.00 41 1015.6
20240529192704 84 283 4.0 10.0 0.00 0.00 0.00 46 1015.8
20240529191804 84 296 5.0 10.0 0.00 0.00 0.00 44 1016.0
20240529190925 83 306 4.0 12.0 0.00 0.00 0.00 48 1016.0
20240529190004 84 288 4.0 8.0 0.00 0.00 0.00 48 1016.1
20240529185404 84 275 3.0 8.0 0.00 0.00 0.00 42 1016.1
20240529184504 84 297 3.0 10.0 0.00 0.00 0.00 39 1016.1
20240529183604 84 305 6.0 13.0 0.00 0.00 0.00 45 1016.2
20240529182704 84 300 4.0 11.0 0.00 0.00 0.00 41 1016.3
20240529181825 83 298 6.0 14.0 0.00 0.00 0.00 41 1016.5
20240529180904 83 305 5.0 13.0 0.00 0.00 0.00 41 1016.5
20240529180004 84 301 5.0 12.0 0.00 0.00 0.00 46 1016.5
20240529175404 84 288 4.0 12.0 0.00 0.00 0.00 40 1016.5
20240529174525 83 294 6.0 13.0 0.00 0.00 0.00 41 1016.6
20240529173604 83 295 5.0 12.0 0.00 0.00 0.00 42 1016.8
20240529172704 83 308 6.0 13.0 0.00 0.00 0.00 47 1016.9
20240529171804 82 300 6.0 11.0 0.00 0.00 0.00 39 1016.9
20240529170904 83 304 5.0 12.0 0.00 0.00 0.00 41 1016.9
20240529170004 83 255 3.0 9.0 0.00 0.00 0.00 43 1017.0
20240529165404 83 258 4.0 11.0 0.00 0.00 0.00 45 1017.1
20240529164504 82 299 3.0 11.0 0.00 0.00 0.00 48 1017.1
20240529163604 83 294 4.0 13.0 0.00 0.00 0.00 47 1017.2
20240529162704 82 301 4.0 12.0 0.00 0.00 0.00 47 1017.3
20240529160904 82 330 2.0 8.0 0.00 0.00 0.00 49 1017.5
20240529160004 81 296 4.0 10.0 0.00 0.00 0.00 50 1017.5
20240529155404 81 297 3.0 9.0 0.00 0.00 0.00 47 1017.5
20240529154504 82 263 2.0 5.0 0.00 0.00 0.00 49 1017.5
20240529153604 80 300 3.0 8.0 0.00 0.00 0.00 52 1017.7
20240529152704 80 301 3.0 8.0 0.00 0.00 0.00 48 1017.6
20240529151825 80 302 3.0 8.0 0.00 0.00 0.00 53 1017.5
20240529150925 80 311 2.0 6.0 0.00 0.00 0.00 51 1017.6
20240529150004 80 313 3.0 7.0 0.00 0.00 0.00 50 1017.5
20240529145404 80 303 2.0 5.0 0.00 0.00 0.00 54 1017.4
20240529144504 80 313 1.0 5.0 0.00 0.00 0.00 56 1017.3
20240529143625 79 316 3.0 9.0 0.00 0.00 0.00 57 1017.3
20240529142704 78 321 3.0 7.0 0.00 0.00 0.00 57 1017.4
20240529141825 78 322 2.0 9.0 0.00 0.00 0.00 57 1017.4
20240529140904 78 329 1.0 6.0 0.00 0.00 0.00 61 1017.3
20240529140004 76 310 1.0 4.0 0.00 0.00 0.00 62 1017.3
20240529135425 76 307 1.0 4.0 0.00 0.00 0.00 63 1017.4
20240529134525 75 307 1.0 4.0 0.00 0.00 0.00 66 1017.4
20240529133604 73 320 1.0 3.0 0.00 0.00 0.00 68 1017.4
20240529132704 72 308 1.0 3.0 0.00 0.00 0.00 72 1017.3
20240529131804 71 295 0.0 2.0 0.00 0.00 0.00 77 1017.2
20240529130904 70 300 0.0 2.0 0.00 0.00 0.00 78 1017.3
20240529130025 69 83 0.0 1.0 0.00 0.00 0.00 78 1017.3
20240529125404 68 45 0.0 1.0 0.00 0.00 0.00 78 1017.3
20240529124504 68 11 0.0 1.0 0.00 0.00 0.00 79 1017.2
20240529123604 67 27 0.0 1.0 0.00 0.00 0.00 80 1017.4
20240529122704 66 0 0.0 0.0 0.00 0.00 0.00 81 1017.5
20240529121804 65 0 0.0 0.0 0.00 0.00 0.00 83 1017.6
20240529120904 64 0 0.0 0.0 0.00 0.00 0.00 84 1017.3
20240529120004 63 0 0.0 0.0 0.00 0.00 0.00 87 1017.3
20240529115404 62 0 0.0 0.0 0.00 0.00 0.00 90 1017.5
20240529114504 61 0 0.0 0.0 0.00 0.00 0.00 91 1017.3
20240529113625 60 82 0.0 1.0 0.00 0.00 0.00 91 1017.2
20240529112704 60 0 0.0 0.0 0.00 0.00 0.00 91 1016.5
20240529111804 60 83 0.0 1.0 0.00 0.00 0.00 92 1016.4
20240529110904 60 60 0.0 1.0 0.00 0.00 0.00 92 1016.4
20240529110004 59 0 0.0 0.0 0.00 0.00 0.00 92 1016.4
20240529105425 59 0 0.0 0.0 0.00 0.00 0.00 91 1015.8
20240529104504 59 0 0.0 0.0 0.00 0.00 0.00 91 1015.5
20240529103604 59 0 0.0 0.0 0.00 0.00 0.00 91 1015.4
20240529102704 59 0 0.0 0.0 0.00 0.00 0.00 90 1015.3
20240529101804 59 0 0.0 0.0 0.00 0.00 0.00 89 1015.3
20240529100904 60 0 0.0 0.0 0.00 0.00 0.00 89 1015.3
20240529100025 60 0 0.0 0.0 0.00 0.00 0.00 88 1015.2
20240529095425 60 0 0.0 0.0 0.00 0.00 0.00 88 1015.2
20240529094504 60 0 0.0 0.0 0.00 0.00 0.00 87 1015.2